Snowfall_Accumulation
0.0 0.0 0.0 0.0 0.0 0.0 0.0 0.0 0.0 0.0 0.0 0.0 0.0 0.0 0.0 0.0 0.0 0.0 0.0 0.0 0.0 0.0 0.0 0.0 0.0 0.0 0.0 0.0 0.0 0.0 0.0 0.0 0.0 0.0 0.0 0.0 0.0 0.0 0.0 0.0 0.0 0.0 0.0 0.0 0.0 0.0 0.0
0.0 0.0 0.0 0.0 0.0 0.0 0.0 0.0 0.0 0.0 0.0 0.0 0.0 0.0 0.0 0.0 0.0 0.0 0.0 0.0 0.0 0.0 0.0 0.0 0.0 0.0 0.0 0.0 0.0 0.0 0.0 0.0 0.0 0.0 0.0 0.0 0.0 0.0 0.0 0.0 0.0 0.0 0.0 0.0 0.0 0.0 0.0
0.0 0.0 0.0 0.0 0.0 0.0 0.0 0.0 0.0 0.0 0.0 0.0 0.0 0.0 0.0 0.0 0.0 0.0 0.0 0.0 0.0 0.0 0.0 0.0 0.0 0.0 0.0 0.0 0.0 0.0 0.0 0.0 0.0 0.0 0.0 0.0 0.0 0.0 0.0 0.0 0.0 0.0 0.0 0.0 0.0 0.0 0.0
0.0 0.0 0.0 0.0 0.0 0.0 0.0 0.0 0.0 0.0 0.0 0.0 0.0 0.0 0.0 0.0 0.0 0.0 0.0 0.0 0.0 0.0 0.0 0.0 0.0 0.0 0.0 0.0 0.0 0.0 0.0 0.0 0.0 0.0 0.0 0.0 0.0 0.0 0.0 0.0 0.0 0.1 0.6 7.4 0.0 0.0 0.0
0.0 0.0 0.0 0.0 0.0 0.0 0.0 0.0 0.0 0.0 0.0 0.0 0.0 0.0 0.0 0.0 0.0 0.0 0.0 0.0 0.0 0.0 0.0 0.0 0.0 0.0 0.0 0.0 0.0 0.0 0.0 0.0 0.0 0.0 0.0 0.0 0.0 0.0 0.0 0.0 1.2 0.8 4.7 6.2 0.0 0.0 0.0
0.0 0.0 0.0 0.0 0.0 0.0 0.0 0.0 0.0 0.0 0.0 0.0 0.0 0.0 0.0 0.0 0.0 0.0 0.0 0.0 0.0 0.0 0.0 0.0 0.0 0.0 0.0 0.0 0.0 0.0 0.0 0.0 0.0 0.0 0.0 0.0 0.0 0.0 0.0 1.4 5.3 2.9 2.2 0.5 2.6 0.0 0.3
0.0 0.0 0.0 0.0 0.0 0.0 0.0 0.0 0.0 0.0 0.0 0.0 0.0 0.0 0.0 0.0 0.0 0.0 0.0 0.0 0.0 0.0 0.0 0.0 0.0 0.0 0.0 0.0 0.0 0.0 0.0 0.0 0.0 0.0 0.0 0.0 1.3 1.2 0.0 0.1 0.0 0.7 3.2 2.0 0.0 0.0 0.5
0.0 0.0 0.0 0.0 0.0 0.0 0.0 0.0 0.0 0.0 0.0 0.0 0.0 0.0 0.0 0.0 0.0 0.0 0.0 0.0 0.0 0.0 0.0 0.0 0.0 0.0 0.0 0.0 0.0 0.0 0.0 0.0 0.0 0.0 0.0 0.0 1.0 0.0 0.1 0.0 1.0 0.7 3.4 3.8 1.2 0.0 0.0
0.0 0.0 0.0 0.0 0.0 0.0 0.0 0.0 0.0 0.0 0.0 0.0 0.0 0.0 0.0 0.0 0.0 0.0 0.0 0.0 0.0 0.0 2.8 0.0 0.0 0.0 0.0 0.0 0.0 0.0 0.0 0.0 0.2 0.0 0.5 2.2 0.0 0.0 0.0 0.3 1.7 2.0 3.8 3.5 2.7 1.6 1.3
0.0 0.0 0.0 0.0 0.0 0.0 0.0 0.0 0.0 0.0 0.0 0.0 0.0 0.0 0.0 0.0 0.0 0.0 0.0 0.0 0.0 0.0 21.1 5.1 0.1 0.0 0.0 0.0 0.4 0.0 0.0 0.0 1.2 1.5 0.1 1.4 0.0 0.0 0.3 0.6 0.3 4.4 0.0 0.0 1.6 6.5 8.1
0.0 0.0 0.0 0.0 0.0 0.0 0.0 0.0 0.0 0.0 0.0 0.0 0.0 0.0 0.0 0.0 0.0 0.0 0.0 0.0 0.0 0.0 19.4 1.3 0.0 0.0 0.0 0.4 0.0 0.0 0.0 0.0 2.1 1.6 3.0 11.1 0.0 0.1 1.0 0.0 0.0 1.0 0.0 0.1 1.8 5.4 8.4
0.0 0.0 0.0 0.0 0.0 0.0 0.0 0.0 0.0 0.0 0.0 0.0 0.0 0.0 0.0 0.0 0.0 0.0 0.0 0.0 0.0 26.8 19.9 12.6 0.0 0.0 0.0 0.0 0.0 0.0 0.3 0.0 0.0 0.5 0.0 1.4 0.0 0.0 1.2 0.4 0.2 0.0 0.1 0.1 1.9 5.4 21.5
0.0 0.0 0.0 0.0 0.0 0.0 0.0 0.0 0.0 0.0 0.0 0.0 0.0 0.0 0.0 0.0 0.0 0.0 0.0 0.0 25.2 17.1 5.9 10.1 4.9 0.0 0.0 0.0 0.0 0.2 0.6 2.2 3.6 15.2 14.2 8.8 4.0 0.3 1.2 3.0 0.4 2.6 12.2 24.0 20.5 23.3 7.0
0.0 0.0 0.0 0.0 0.0 0.0 0.0 0.0 0.0 0.0 0.0 0.0 0.0 0.0 0.0 0.0 0.0 0.0 0.0 4.5 15.9 4.5 8.8 0.0 0.0 0.0 2.1 0.1 0.1 0.0 0.2 4.1 2.0 3.5 7.7 11.5 12.1 5.3 1.3 4.2 6.8 1.4 8.9 18.7 11.8 4.7 1.5
0.0 0.0 0.0 0.0 0.0 0.0 0.0 0.0 0.0 0.0 0.0 0.0 0.0 0.0 0.0 0.0 0.0 0.0 0.2 21.7 8.7 8.0 6.6 0.5 0.0 2.1 1.9 0.0 0.5 0.8 1.3 4.0 3.2 3.0 11.9 9.3 4.7 0.6 1.6 0.8 3.3 5.4 16.1 2.8 11.9 3.1 5.4
0.0 0.0 0.0 0.0 0.0 0.0 0.0 0.0 0.0 0.0 0.0 0.0 0.0 0.0 0.0 0.0 0.0 0.0 7.7 17.2 5.8 1.9 0.0 0.3 3.9 1.1 2.2 0.6 1.8 1.7 1.8 5.2 3.0 2.2 2.3 5.4 5.9 0.2 1.0 1.6 1.4 6.3 4.6 12.4 25.0 17.0 4.2
0.0 0.0 0.0 0.0 0.0 0.0 0.0 0.0 0.0 0.0 0.0 0.0 0.0 0.2 0.0 0.0 0.0 0.1 25.8 12.7 4.4 0.7 0.9 0.5 0.9 2.4 1.9 1.7 0.1 1.6 2.8 2.8 2.1 1.5 1.4 4.5 14.7 1.3 0.8 5.3 8.2 9.9 23.9 13.6 12.5 7.8 10.9
0.0 0.0 0.0 0.0 0.0 0.0 0.0 0.0 0.0 0.0 0.0 0.0 0.0 7.6 0.0 0.0 0.8 8.3 13.3 5.9 0.0 1.1 0.3 0.7 1.6 3.2 2.7 1.4 1.8 0.7 1.7 2.8 2.4 2.7 3.1 4.1 14.8 11.7 2.7 3.4 5.1 4.5 11.3 15.8 16.2 7.3 9.2
0.0 0.0 0.0 0.0 0.0 0.0 0.0 0.0 0.0 0.0 0.0 0.0 4.8 0.0 0.0 0.0 13.2 7.9 2.4 0.6 0.3 0.1 0.4 0.2 0.9 1.0 1.7 1.3 3.1 0.1 0.1 0.1 0.9 1.1 3.3 6.8 18.9 12.5 8.6 5.4 2.6 8.9 7.8 10.4 12.5 14.7 15.2
0.0 0.0 0.0 0.0 0.0 0.0 0.0 0.0 0.0 0.0 0.0 0.0 6.3 11.2 0.0 0.0 1.1 7.7 3.4 1.7 0.0 0.1 0.0 0.9 0.8 0.5 0.5 0.2 0.0 0.9 0.2 0.0 0.0 0.4 2.4 3.8 10.4 12.6 12.7 13.4 12.7 12.6 6.3 8.3 22.8 31.9 12.7
0.0 0.0 0.0 0.0 0.0 0.0 0.0 0.0 0.0 0.0 0.0 0.0 5.2 7.0 1.2 10.6 3.8 2.5 3.5 4.0 1.5 2.1 0.8 1.0 0.7 0.8 2.7 2.9 0.3 0.3 0.1 0.0 0.0 0.0 0.8 2.2 14.0 4.3 2.3 2.2 9.6 10.6 10.4 10.9 22.0 13.2 20.3
0.0 0.0 0.0 0.0 0.0 0.0 0.0 0.0 0.0 0.0 0.0 0.0 7.5 10.5 8.0 2.9 1.7 2.4 3.0 2.7 2.0 1.6 2.7 1.0 0.6 0.5 0.5 2.5 1.5 1.5 0.3 0.0 0.8 0.0 0.0 3.1 14.1 10.7 7.9 3.1 5.9 9.5 6.2 7.2 10.7 8.7 11.7
0.0 0.0 0.0 0.0 0.0 0.0 0.0 0.0 0.0 0.0 0.0 5.2 0.4 1.3 15.6 1.3 2.0 4.1 2.6 3.3 2.7 2.1 0.0 0.6 0.7 1.4 0.3 0.3 0.0 0.0 0.0 0.0 1.3 2.9 1.8 6.1 8.3 12.3 8.1 3.2 5.8 13.4 14.9 9.3 9.0 10.5 13.0
0.0 0.0 0.0 0.0 0.0 0.0 0.0 0.0 0.0 0.0 0.0 0.0 0.0 7.7 20.2 9.1 2.3 1.3 1.7 3.3 2.9 1.7 2.7 0.6 0.5 1.6 0.1 0.0 0.1 0.0 0.0 0.0 0.0 0.4 0.0 1.6 6.7 10.0 9.0 5.0 14.0 7.4 4.3 6.3 8.7 9.6 9.7
0.0 0.0 0.0 0.0 0.0 0.0 0.0 0.0 0.0 0.0 0.0 0.0 0.0 6.2 18.1 10.7 0.2 0.1 2.7 2.5 2.5 2.5 1.8 1.1 0.3 0.0 0.0 0.8 1.6 1.1 1.4 1.4 0.0 0.0 0.2 1.9 3.2 8.2 7.4 3.4 1.4 1.0 1.0 2.6 6.5 8.1 5.4
0.0 0.0 0.0 0.0 0.0 0.0 0.0 0.0 0.0 0.0 0.0 0.0 0.0 0.0 11.5 18.8 0.9 0.8 2.0 2.5 3.9 3.9 3.4 1.9 0.0 0.0 0.1 3.8 5.7 7.5 3.0 1.7 1.2 1.6 1.6 0.1 1.3 8.4 5.2 6.2 2.4 1.5 0.1 0.3 1.5 8.1 1.0
0.0 0.0 0.0 0.0 0.0 0.0 0.0 0.0 0.0 0.0 0.0 0.0 0.0 0.0 10.7 19.0 0.6 1.4 3.1 2.9 1.8 3.7 6.6 3.4 3.0 1.1 0.0 3.4 7.8 5.6 0.9 0.8 0.8 2.1 2.3 3.9 4.6 6.3 3.5 6.9 0.9 0.0 0.0 0.2 2.3 3.9 2.9
0.0 0.0 0.0 0.0 0.0 0.0 0.0 0.0 0.0 0.0 0.0 0.0 0.0 0.0 6.5 16.6 1.2 0.0 0.1 2.1 2.8 3.9 6.2 4.9 7.8 4.3 5.4 10.3 7.3 5.4 4.6 3.5 2.0 0.1 1.8 4.3 3.6 3.0 3.8 8.1 2.7 0.0 0.0 1.1 2.3 0.8 2.6
0.0 0.0 0.0 0.0 0.0 0.0 0.0 0.0 0.0 0.0 0.0 0.0 1.5 0.0 0.0 8.1 6.9 0.9 0.3 0.0 0.6 2.0 4.5 4.9 7.9 5.0 6.8 9.5 10.2 8.8 7.9 6.7 1.4 2.7 0.1 6.7 4.3 3.2 1.4 0.3 0.0 0.2 0.3 0.2 0.0 1.1 2.0